| time (UTC) | temp F | wind direction | speed MPH | gust MPH | rain 1hr in | rain 24hr in | rain mn in | humidity % | barometer mb |
| 20260509084825 | 54 | 360 | 10.0 | 14.0 | 0.00 | 0.00 | 0.00 | 85 | 1000.2 |
| 20260509084335 | 54 | 360 | 9.0 | 15.0 | 0.00 | 0.00 | 0.00 | 84 | 1000.2 |
| 20260509083841 | 54 | 360 | 9.0 | 15.0 | 0.00 | 0.00 | 0.00 | 84 | 1000.3 |
| 20260509083327 | 54 | 360 | 8.0 | 14.0 | 0.00 | 0.00 | 0.00 | 85 | 1000.2 |
| 20260509082834 | 54 | 360 | 7.0 | 14.0 | 0.00 | 0.00 | 0.00 | 84 | 1000.1 |
| 20260509082343 | 54 | 360 | 11.0 | 15.0 | 0.00 | 0.00 | 0.00 | 85 | 1000.1 |
| 20260509081854 | 54 | 360 | 9.0 | 15.0 | 0.00 | 0.00 | 0.00 | 85 | 1000.2 |
| 20260509081324 | 54 | 193 | 10.0 | 14.0 | 0.00 | 0.00 | 0.00 | 84 | 1000.3 |
| 20260509080832 | 54 | 360 | 6.0 | 11.0 | 0.00 | 0.00 | 0.00 | 84 | 1000.2 |
| 20260509080322 | 54 | 360 | 6.0 | 14.0 | 0.00 | 0.00 | 0.00 | 84 | 1000.3 |
| 20260509075832 | 54 | 360 | 9.0 | 14.0 | 0.00 | 0.00 | 0.00 | 84 | 1000.4 |
| 20260509075341 | 54 | 360 | 8.0 | 12.0 | 0.00 | 0.01 | 0.00 | 84 | 1000.5 |
| 20260509074828 | 54 | 360 | 7.0 | 13.0 | 0.00 | 0.01 | 0.00 | 83 | 1000.5 |
| 20260509074340 | 54 | 360 | 9.0 | 13.0 | 0.00 | 0.01 | 0.00 | 84 | 1000.5 |
| 20260509073828 | 54 | 360 | 7.0 | 12.0 | 0.00 | 0.01 | 0.00 | 83 | 1000.5 |
| 20260509073336 | 54 | 360 | 7.0 | 12.0 | 0.00 | 0.01 | 0.00 | 83 | 1000.4 |
| 20260509072827 | 54 | 360 | 8.0 | 14.0 | 0.00 | 0.01 | 0.00 | 83 | 1000.3 |
| 20260509072335 | 55 | 360 | 8.0 | 16.0 | 0.00 | 0.01 | 0.00 | 82 | 1000.4 |
| 20260509071823 | 54 | 360 | 11.0 | 16.0 | 0.00 | 0.01 | 0.00 | 83 | 1000.6 |
| 20260509071331 | 55 | 360 | 7.0 | 14.0 | 0.00 | 0.01 | 0.00 | 82 | 1000.7 |
| 20260509070838 | 55 | 360 | 9.0 | 14.0 | 0.00 | 0.01 | 0.00 | 83 | 1000.8 |
| 20260509070328 | 54 | 360 | 9.0 | 12.0 | 0.00 | 0.01 | 0.00 | 83 | 1001.1 |
| 20260509065838 | 55 | 360 | 8.0 | 13.0 | 0.00 | 0.01 | 0.00 | 84 | 1001.1 |
| 20260509065347 | 54 | 360 | 9.0 | 13.0 | 0.00 | 0.01 | 0.00 | 84 | 1001.1 |
| 20260509064830 | 54 | 360 | 8.0 | 12.0 | 0.00 | 0.01 | 0.00 | 85 | 1001.1 |
| 20260509064341 | 54 | 360 | 7.0 | 10.0 | 0.00 | 0.01 | 0.00 | 84 | 1001.2 |
| 20260509063844 | 54 | 360 | 6.0 | 11.0 | 0.00 | 0.01 | 0.00 | 84 | 1001.3 |
| 20260509063352 | 54 | 360 | 6.0 | 11.0 | 0.00 | 0.01 | 0.00 | 84 | 1001.4 |
| 20260509062841 | 55 | 360 | 5.0 | 11.0 | 0.00 | 0.01 | 0.00 | 84 | 1001.6 |
| 20260509062331 | 55 | 360 | 7.0 | 11.0 | 0.00 | 0.01 | 0.00 | 84 | 1001.6 |
| 20260509061840 | 55 | 360 | 8.0 | 10.0 | 0.00 | 0.01 | 0.00 | 84 | 1001.6 |
| 20260509061331 | 55 | 360 | 6.0 | 10.0 | 0.00 | 0.01 | 0.00 | 84 | 1001.6 |
| 20260509060837 | 55 | 360 | 6.0 | 10.0 | 0.00 | 0.01 | 0.00 | 83 | 1001.7 |
| 20260509060327 | 55 | 360 | 5.0 | 12.0 | 0.00 | 0.01 | 0.00 | 82 | 1001.7 |
| 20260509055836 | 55 | 360 | 7.0 | 12.0 | 0.00 | 0.01 | 0.00 | 82 | 1001.7 |
| 20260509055344 | 55 | 360 | 7.0 | 12.0 | 0.00 | 0.01 | 0.00 | 82 | 1001.7 |
| 20260509054830 | 55 | 360 | 6.0 | 11.0 | 0.00 | 0.01 | 0.00 | 81 | 1001.8 |
| 20260509054340 | 55 | 360 | 7.0 | 11.0 | 0.00 | 0.01 | 0.00 | 81 | 1001.8 |
| 20260509053828 | 56 | 184 | 6.0 | 10.0 | 0.00 | 0.01 | 0.00 | 80 | 1001.9 |
| 20260509053337 | 56 | 360 | 7.0 | 12.0 | 0.00 | 0.01 | 0.00 | 80 | 1001.9 |
| 20260509052846 | 56 | 360 | 8.0 | 12.0 | 0.00 | 0.01 | 0.00 | 80 | 1001.9 |
| 20260509052330 | 56 | 360 | 6.0 | 8.0 | 0.00 | 0.01 | 0.00 | 79 | 1001.9 |
| 20260509051839 | 56 | 360 | 7.0 | 8.0 | 0.00 | 0.01 | 0.00 | 79 | 1001.8 |
| 20260509051349 | 56 | 360 | 6.0 | 10.0 | 0.00 | 0.01 | 0.00 | 78 | 1001.9 |
| 20260509050857 | 56 | 360 | 5.0 | 10.0 | 0.00 | 0.01 | 0.00 | 77 | 1001.9 |
| 20260509050325 | 56 | 360 | 6.0 | 11.0 | 0.00 | 0.01 | 0.00 | 77 | 1001.8 |
| 20260509045832 | 56 | 190 | 7.0 | 12.0 | 0.00 | 0.01 | 0.00 | 77 | 1001.8 |
| 20260509045321 | 56 | 360 | 8.0 | 13.0 | 0.00 | 0.01 | 0.00 | 76 | 1001.8 |
| 20260509044830 | 56 | 360 | 7.0 | 13.0 | 0.00 | 0.01 | 0.00 | 76 | 1001.7 |
| 20260509044341 | 56 | 197 | 8.0 | 12.0 | 0.00 | 0.01 | 0.00 | 76 | 1001.7 |
| 20260509043828 | 56 | 360 | 7.0 | 16.0 | 0.00 | 0.01 | 0.00 | 75 | 1001.8 |
| 20260509043338 | 56 | 360 | 7.0 | 16.0 | 0.00 | 0.01 | 0.00 | 75 | 1001.8 |
| 20260509042825 | 56 | 360 | 7.0 | 10.0 | 0.00 | 0.01 | 0.00 | 75 | 1001.6 |
| 20260509042400 | 55 | 360 | 7.0 | 12.0 | 0.00 | 0.01 | 0.00 | 75 | 1001.6 |
| 20260509041849 | 55 | 360 | 7.0 | 12.0 | 0.00 | 0.01 | 0.00 | 74 | 1001.5 |
| 20260509041339 | 55 | 360 | 7.0 | 11.0 | 0.00 | 0.01 | 0.00 | 74 | 1001.8 |
| 20260509040827 | 55 | 360 | 6.0 | 10.0 | 0.00 | 0.01 | 0.00 | 74 | 1001.9 |
| 20260509040337 | 54 | 360 | 7.0 | 10.0 | 0.00 | 0.01 | 0.00 | 73 | 1001.9 |
| 20260509035843 | 54 | 360 | 6.0 | 10.0 | 0.00 | 0.01 | 0.00 | 73 | 1002.0 |
| 20260509035350 | 54 | 360 | 6.0 | 9.0 | 0.00 | 0.01 | 0.00 | 73 | 1002.0 |
| 20260509034903 | 54 | 360 | 6.0 | 9.0 | 0.00 | 0.01 | 0.00 | 73 | 1002.0 |
| 20260509034352 | 54 | 360 | 3.0 | 9.0 | 0.00 | 0.01 | 0.00 | 72 | 1002.0 |
| 20260509033838 | 54 | 360 | 4.0 | 10.0 | 0.00 | 0.01 | 0.00 | 72 | 1002.0 |
| 20260509033324 | 54 | 360 | 6.0 | 10.0 | 0.00 | 0.01 | 0.00 | 72 | 1002.0 |
| 20260509032834 | 54 | 360 | 5.0 | 9.0 | 0.00 | 0.01 | 0.00 | 71 | 1002.0 |
| 20260509032342 | 55 | 360 | 5.0 | 9.0 | 0.00 | 0.01 | 0.00 | 71 | 1002.0 |
| 20260509031829 | 55 | 360 | 5.0 | 9.0 | 0.00 | 0.01 | 0.00 | 70 | 1002.0 |
| 20260509031338 | 55 | 360 | 4.0 | 9.0 | 0.00 | 0.01 | 0.00 | 70 | 1002.1 |
| 20260509030824 | 55 | 360 | 6.0 | 8.0 | 0.00 | 0.01 | 0.00 | 70 | 1002.1 |
| 20260509030358 | 55 | 360 | 4.0 | 8.0 | 0.00 | 0.01 | 0.00 | 70 | 1002.2 |
| 20260509025846 | 55 | 360 | 4.0 | 9.0 | 0.00 | 0.01 | 0.00 | 69 | 1002.2 |
| 20260509025350 | 55 | 360 | 4.0 | 9.0 | 0.00 | 0.01 | 0.00 | 69 | 1002.2 |
| 20260509024836 | 55 | 360 | 5.0 | 9.0 | 0.00 | 0.01 | 0.00 | 69 | 1002.2 |
| 20260509024328 | 55 | 360 | 5.0 | 9.0 | 0.00 | 0.01 | 0.00 | 69 | 1002.3 |
| 20260509023836 | 55 | 360 | 3.0 | 8.0 | 0.00 | 0.01 | 0.00 | 69 | 1002.3 |
| 20260509023324 | 55 | 360 | 2.0 | 5.0 | 0.00 | 0.01 | 0.00 | 69 | 1002.3 |
| 20260509022832 | 55 | 360 | 3.0 | 7.0 | 0.00 | 0.01 | 0.00 | 69 | 1002.4 |
| 20260509022339 | 55 | 360 | 3.0 | 8.0 | 0.00 | 0.01 | 0.00 | 69 | 1002.4 |
| 20260509021829 | 55 | 360 | 4.0 | 8.0 | 0.00 | 0.01 | 0.00 | 69 | 1002.4 |
| 20260509021340 | 55 | 360 | 3.0 | 7.0 | 0.00 | 0.01 | 0.00 | 69 | 1002.4 |
| 20260509020828 | 55 | 360 | 3.0 | 6.0 | 0.00 | 0.01 | 0.00 | 68 | 1002.5 |
| 20260509020336 | 55 | 360 | 3.0 | 7.0 | 0.00 | 0.01 | 0.00 | 68 | 1002.5 |
| 20260509015825 | 55 | 360 | 3.0 | 7.0 | 0.00 | 0.01 | 0.00 | 68 | 1002.6 |
| 20260509015333 | 56 | 360 | 4.0 | 6.0 | 0.00 | 0.01 | 0.00 | 68 | 1002.5 |
| 20260509014825 | 56 | 360 | 3.0 | 8.0 | 0.00 | 0.01 | 0.00 | 67 | 1002.5 |
| 20260509014403 | 56 | 360 | 4.0 | 8.0 | 0.00 | 0.01 | 0.00 | 67 | 1002.6 |
| 20260509013831 | 56 | 360 | 4.0 | 7.0 | 0.00 | 0.01 | 0.00 | 66 | 1002.6 |
| 20260509013341 | 56 | 360 | 3.0 | 5.0 | 0.00 | 0.01 | 0.00 | 66 | 1002.7 |
| 20260509012833 | 56 | 360 | 2.0 | 5.0 | 0.00 | 0.01 | 0.00 | 65 | 1002.6 |
| 20260509012326 | 57 | 360 | 3.0 | 6.0 | 0.00 | 0.01 | 0.00 | 65 | 1002.6 |
| 20260509011835 | 57 | 360 | 4.0 | 6.0 | 0.00 | 0.01 | 0.00 | 64 | 1002.6 |
| 20260509011345 | 57 | 360 | 3.0 | 4.0 | 0.00 | 0.01 | 0.00 | 64 | 1002.5 |
| 20260509010852 | 57 | 360 | 3.0 | 4.0 | 0.00 | 0.01 | 0.00 | 63 | 1002.5 |
| 20260509010340 | 57 | 360 | 3.0 | 7.0 | 0.00 | 0.01 | 0.00 | 62 | 1002.5 |
| 20260509005849 | 58 | 360 | 4.0 | 7.0 | 0.00 | 0.01 | 0.00 | 62 | 1002.5 |
| 20260509005404 | 58 | 360 | 4.0 | 6.0 | 0.00 | 0.01 | 0.00 | 61 | 1002.4 |
| 20260509004851 | 58 | 360 | 4.0 | 8.0 | 0.00 | 0.01 | 0.00 | 61 | 1002.3 |
| 20260509004340 | 58 | 360 | 4.0 | 8.0 | 0.00 | 0.01 | 0.00 | 60 | 1002.4 |
| 20260509003829 | 59 | 360 | 4.0 | 9.0 | 0.00 | 0.01 | 0.00 | 59 | 1002.4 |
| 20260509003341 | 59 | 360 | 5.0 | 9.0 | 0.00 | 0.01 | 0.00 | 59 | 1002.3 |
| 20260509002829 | 59 | 360 | 4.0 | 7.0 | 0.00 | 0.01 | 0.00 | 58 | 1002.3 |
| 20260509002336 | 59 | 360 | 3.0 | 7.0 | 0.00 | 0.01 | 0.00 | 58 | 1002.4 |
| 20260509001825 | 59 | 360 | 3.0 | 7.0 | 0.00 | 0.01 | 0.00 | 58 | 1002.4 |
| 20260509001335 | 59 | 360 | 4.0 | 7.0 | 0.00 | 0.01 | 0.00 | 57 | 1002.5 |
| 20260509000840 | 60 | 360 | 4.0 | 9.0 | 0.00 | 0.01 | 0.00 | 56 | 1002.5 |
| 20260509000329 | 60 | 360 | 5.0 | 9.0 | 0.00 | 0.01 | 0.00 | 56 | 1002.6 |
| 20260508235839 | 60 | 360 | 5.0 | 10.0 | 0.00 | 0.01 | 0.00 | 56 | 1002.7 |
| 20260508235330 | 60 | 360 | 4.0 | 11.0 | 0.00 | 0.01 | 0.00 | 56 | 1002.6 |
| 20260508234835 | 60 | 360 | 6.0 | 11.0 | 0.00 | 0.01 | 0.00 | 56 | 1002.7 |
| 20260508234326 | 60 | 360 | 5.0 | 11.0 | 0.00 | 0.01 | 0.00 | 55 | 1002.7 |
| 20260508233833 | 60 | 360 | 4.0 | 9.0 | 0.00 | 0.01 | 0.00 | 55 | 1002.8 |
| 20260508233323 | 60 | 360 | 3.0 | 8.0 | 0.00 | 0.01 | 0.00 | 53 | 1002.9 |
| 20260508232836 | 60 | 360 | 4.0 | 8.0 | 0.00 | 0.01 | 0.00 | 52 | 1002.8 |
| 20260508232324 | 61 | 360 | 3.0 | 8.0 | 0.00 | 0.01 | 0.00 | 52 | 1002.9 |
| 20260508231832 | 61 | 360 | 5.0 | 11.0 | 0.00 | 0.01 | 0.00 | 51 | 1003.0 |
| 20260508231342 | 61 | 360 | 7.0 | 11.0 | 0.00 | 0.01 | 0.00 | 51 | 1003.0 |
| 20260508230829 | 61 | 360 | 6.0 | 10.0 | 0.00 | 0.01 | 0.00 | 51 | 1002.9 |
| 20260508230339 | 61 | 360 | 4.0 | 10.0 | 0.00 | 0.01 | 0.00 | 51 | 1003.1 |
| 20260508225829 | 61 | 360 | 5.0 | 11.0 | 0.00 | 0.01 | 0.00 | 51 | 1003.0 |
| 20260508225339 | 61 | 360 | 5.0 | 11.0 | 0.00 | 0.01 | 0.00 | 51 | 1003.1 |
| 20260508224827 | 61 | 360 | 5.0 | 9.0 | 0.00 | 0.01 | 0.00 | 49 | 1003.0 |
| 20260508224339 | 62 | 360 | 6.0 | 9.0 | 0.00 | 0.01 | 0.00 | 48 | 1003.0 |
| 20260508223828 | 62 | 360 | 3.0 | 9.0 | 0.00 | 0.01 | 0.00 | 48 | 1003.1 |
| 20260508223337 | 62 | 360 | 4.0 | 7.0 | 0.00 | 0.01 | 0.00 | 48 | 1003.2 |
| 20260508222844 | 62 | 360 | 3.0 | 10.0 | 0.00 | 0.01 | 0.00 | 46 | 1003.2 |
| 20260508222330 | 62 | 360 | 4.0 | 10.0 | 0.00 | 0.01 | 0.00 | 47 | 1003.2 |
| 20260508221838 | 62 | 360 | 7.0 | 10.0 | 0.00 | 0.01 | 0.00 | 45 | 1003.2 |
| 20260508221332 | 63 | 360 | 5.0 | 9.0 | 0.00 | 0.01 | 0.00 | 45 | 1003.2 |
| 20260508220840 | 63 | 360 | 3.0 | 10.0 | 0.00 | 0.01 | 0.00 | 44 | 1003.3 |
| 20260508220328 | 63 | 360 | 3.0 | 13.0 | 0.00 | 0.01 | 0.00 | 43 | 1003.3 |
| 20260508215834 | 63 | 360 | 5.0 | 13.0 | 0.00 | 0.01 | 0.00 | 43 | 1003.4 |
| 20260508215343 | 63 | 360 | 5.0 | 8.0 | 0.00 | 0.01 | 0.00 | 43 | 1003.4 |
| 20260508214831 | 63 | 360 | 4.0 | 9.0 | 0.00 | 0.01 | 0.00 | 43 | 1003.5 |
| 20260508214342 | 63 | 360 | 5.0 | 9.0 | 0.00 | 0.01 | 0.00 | 41 | 1003.4 |
| 20260508213828 | 63 | 360 | 3.0 | 12.0 | 0.00 | 0.01 | 0.00 | 41 | 1003.4 |
| 20260508213339 | 63 | 360 | 4.0 | 12.0 | 0.00 | 0.01 | 0.00 | 39 | 1003.4 |
| 20260508212828 | 64 | 360 | 4.0 | 9.0 | 0.00 | 0.01 | 0.00 | 39 | 1003.5 |
| 20260508212335 | 63 | 360 | 4.0 | 9.0 | 0.00 | 0.01 | 0.00 | 40 | 1003.6 |
| 20260508211825 | 63 | 360 | 3.0 | 9.0 | 0.00 | 0.01 | 0.00 | 37 | 1003.5 |
| 20260508211404 | 63 | 360 | 4.0 | 9.0 | 0.00 | 0.01 | 0.00 | 37 | 1003.6 |
| 20260508210829 | 63 | 360 | 1.0 | 9.0 | 0.00 | 0.01 | 0.00 | 38 | 1003.7 |
| 20260508210340 | 63 | 360 | 5.0 | 9.0 | 0.00 | 0.01 | 0.00 | 36 | 1003.7 |
| 20260508205830 | 64 | 360 | 4.0 | 8.0 | 0.00 | 0.01 | 0.00 | 36 | 1003.8 |
| 20260508205340 | 64 | 360 | 5.0 | 9.0 | 0.00 | 0.02 | 0.00 | 35 | 1003.8 |
| 20260508204826 | 64 | 360 | 5.0 | 9.0 | 0.00 | 0.02 | 0.00 | 34 | 1003.8 |
| 20260508204338 | 64 | 360 | 5.0 | 10.0 | 0.00 | 0.02 | 0.00 | 35 | 1003.7 |
| 20260508203826 | 64 | 360 | 3.0 | 10.0 | 0.00 | 0.02 | 0.00 | 34 | 1003.8 |
| 20260508203335 | 64 | 360 | 2.0 | 9.0 | 0.00 | 0.02 | 0.00 | 36 | 1003.8 |
| 20260508202823 | 64 | 360 | 4.0 | 9.0 | 0.00 | 0.02 | 0.00 | 35 | 1004.1 |
| 20260508202329 | 65 | 360 | 3.0 | 8.0 | 0.00 | 0.02 | 0.00 | 35 | 1004.1 |
| 20260508201839 | 64 | 360 | 3.0 | 8.0 | 0.00 | 0.02 | 0.00 | 35 | 1004.2 |
| 20260508201331 | 64 | 360 | 3.0 | 9.0 | 0.00 | 0.02 | 0.00 | 36 | 1004.3 |
| 20260508200839 | 64 | 360 | 5.0 | 9.0 | 0.00 | 0.02 | 0.00 | 36 | 1004.3 |
| 20260508200328 | 64 | 360 | 3.0 | 12.0 | 0.00 | 0.02 | 0.00 | 37 | 1004.4 |
| 20260508195836 | 64 | 360 | 3.0 | 12.0 | 0.00 | 0.02 | 0.00 | 36 | 1004.4 |
| 20260508195345 | 64 | 360 | 6.0 | 12.0 | 0.00 | 0.02 | 0.00 | 36 | 1004.4 |
| 20260508194852 | 64 | 360 | 4.0 | 9.0 | 0.00 | 0.02 | 0.00 | 37 | 1004.6 |
| 20260508194342 | 64 | 360 | 4.0 | 9.0 | 0.00 | 0.02 | 0.00 | 37 | 1004.6 |
| 20260508193829 | 63 | 360 | 4.0 | 12.0 | 0.00 | 0.02 | 0.00 | 37 | 1004.8 |
| 20260508193338 | 63 | 360 | 5.0 | 12.0 | 0.00 | 0.02 | 0.00 | 36 | 1004.9 |
| 20260508192847 | 63 | 360 | 5.0 | 10.0 | 0.00 | 0.02 | 0.00 | 38 | 1004.8 |
| 20260508192356 | 63 | 360 | 6.0 | 10.0 | 0.00 | 0.02 | 0.00 | 37 | 1004.8 |
| 20260508191844 | 63 | 360 | 4.0 | 10.0 | 0.00 | 0.02 | 0.00 | 38 | 1005.0 |
| 20260508191339 | 64 | 360 | 7.0 | 11.0 | 0.00 | 0.02 | 0.00 | 37 | 1005.1 |
| 20260508190843 | 64 | 360 | 5.0 | 11.0 | 0.00 | 0.02 | 0.00 | 37 | 1005.2 |
| 20260508190353 | 64 | 360 | 4.0 | 9.0 | 0.00 | 0.02 | 0.00 | 39 | 1005.2 |
| 20260508185843 | 63 | 360 | 3.0 | 11.0 | 0.00 | 0.02 | 0.00 | 38 | 1005.2 |
| 20260508185328 | 64 | 360 | 3.0 | 9.0 | 0.00 | 0.02 | 0.00 | 36 | 1005.4 |
| 20260508184837 | 64 | 360 | 2.0 | 9.0 | 0.00 | 0.02 | 0.00 | 38 | 1005.6 |
| 20260508184346 | 64 | 360 | 4.0 | 8.0 | 0.00 | 0.02 | 0.00 | 37 | 1005.6 |
| 20260508183833 | 64 | 360 | 3.0 | 9.0 | 0.00 | 0.02 | 0.00 | 33 | 1005.5 |
| 20260508183324 | 64 | 360 | 4.0 | 10.0 | 0.00 | 0.02 | 0.00 | 34 | 1005.5 |
| 20260508182832 | 64 | 360 | 2.0 | 10.0 | 0.00 | 0.02 | 0.00 | 33 | 1005.6 |
| 20260508182323 | 63 | 360 | 2.0 | 10.0 | 0.00 | 0.02 | 0.00 | 34 | 1005.7 |
| 20260508181831 | 63 | 360 | 4.0 | 10.0 | 0.00 | 0.02 | 0.00 | 35 | 1005.8 |
| 20260508181343 | 63 | 199 | 4.0 | 12.0 | 0.00 | 0.02 | 0.00 | 34 | 1005.8 |
| 20260508180831 | 63 | 360 | 9.0 | 12.0 | 0.00 | 0.02 | 0.00 | 34 | 1005.9 |
| 20260508180341 | 62 | 360 | 1.0 | 8.0 | 0.00 | 0.02 | 0.00 | 36 | 1005.9 |
| 20260508175832 | 63 | 360 | 6.0 | 12.0 | 0.00 | 0.02 | 0.00 | 33 | 1006.0 |
| 20260508175322 | 63 | 360 | 9.0 | 12.0 | 0.00 | 0.02 | 0.00 | 34 | 1006.1 |
| 20260508174900 | 63 | 360 | 5.0 | 10.0 | 0.00 | 0.02 | 0.00 | 33 | 1006.1 |
| 20260508174332 | 63 | 360 | 7.0 | 10.0 | 0.00 | 0.02 | 0.00 | 35 | 1006.2 |
| 20260508173836 | 62 | 360 | 4.0 | 7.0 | 0.00 | 0.02 | 0.00 | 36 | 1006.3 |
| 20260508173341 | 62 | 360 | 4.0 | 6.0 | 0.00 | 0.02 | 0.00 | 36 | 1006.2 |
| 20260508172850 | 62 | 360 | 3.0 | 7.0 | 0.00 | 0.02 | 0.00 | 35 | 1006.3 |
| 20260508172339 | 62 | 360 | 4.0 | 9.0 | 0.00 | 0.02 | 0.00 | 37 | 1006.4 |
| 20260508171850 | 62 | 360 | 7.0 | 9.0 | 0.00 | 0.02 | 0.00 | 38 | 1006.6 |
| 20260508171340 | 61 | 360 | 2.0 | 11.0 | 0.00 | 0.02 | 0.00 | 36 | 1006.6 |
| 20260508170827 | 62 | 360 | 4.0 | 11.0 | 0.00 | 0.02 | 0.00 | 36 | 1006.6 |
| 20260508170335 | 62 | 360 | 3.0 | 7.0 | 0.00 | 0.02 | 0.00 | 37 | 1006.8 |
| 20260508165845 | 62 | 360 | 4.0 | 7.0 | 0.00 | 0.02 | 0.00 | 37 | 1006.7 |
| 20260508165335 | 62 | 360 | 3.0 | 5.0 | 0.00 | 0.02 | 0.00 | 38 | 1006.9 |
| 20260508164825 | 61 | 360 | 2.0 | 6.0 | 0.00 | 0.02 | 0.00 | 38 | 1007.1 |
| 20260508164338 | 61 | 360 | 2.0 | 7.0 | 0.00 | 0.02 | 0.00 | 38 | 1007.1 |
| 20260508163828 | 61 | 360 | 4.0 | 7.0 | 0.00 | 0.02 | 0.00 | 37 | 1007.3 |
| 20260508163340 | 61 | 360 | 4.0 | 7.0 | 0.00 | 0.02 | 0.00 | 38 | 1007.4 |
| 20260508162830 | 61 | 360 | 1.0 | 6.0 | 0.00 | 0.02 | 0.00 | 39 | 1007.5 |
| 20260508162338 | 60 | 197 | 0.0 | 6.0 | 0.00 | 0.02 | 0.00 | 36 | 1007.5 |
| 20260508161848 | 60 | 360 | 1.0 | 4.0 | 0.00 | 0.02 | 0.00 | 40 | 1007.5 |
| 20260508161356 | 60 | 360 | 1.0 | 4.0 | 0.00 | 0.02 | 0.00 | 42 | 1007.5 |
| 20260508160908 | 59 | 360 | 0.0 | 4.0 | 0.00 | 0.02 | 0.00 | 40 | 1007.6 |
| 20260508160356 | 59 | 360 | 3.0 | 4.0 | 0.00 | 0.02 | 0.00 | 41 | 1007.8 |
| 20260508155825 | 60 | 360 | 0.0 | 4.0 | 0.00 | 0.02 | 0.00 | 39 | 1007.8 |
| 20260508155335 | 60 | 360 | 1.0 | 7.0 | 0.00 | 0.02 | 0.00 | 42 | 1007.7 |
| 20260508154824 | 60 | 360 | 3.0 | 7.0 | 0.00 | 0.02 | 0.00 | 41 | 1007.7 |
| 20260508154335 | 59 | 360 | 0.0 | 7.0 | 0.00 | 0.02 | 0.00 | 44 | 1007.8 |
| 20260508153823 | 59 | 360 | 4.0 | 7.0 | 0.00 | 0.02 | 0.00 | 44 | 1007.9 |
| 20260508153333 | 58 | 360 | 1.0 | 6.0 | 0.00 | 0.02 | 0.00 | 47 | 1007.9 |
| 20260508152823 | 58 | 360 | 3.0 | 7.0 | 0.00 | 0.02 | 0.00 | 45 | 1007.8 |
| 20260508152333 | 58 | 360 | 4.0 | 8.0 | 0.00 | 0.02 | 0.00 | 46 | 1007.8 |
| 20260508151822 | 58 | 360 | 3.0 | 8.0 | 0.00 | 0.02 | 0.00 | 49 | 1007.8 |
| 20260508151335 | 58 | 360 | 2.0 | 5.0 | 0.00 | 0.02 | 0.00 | 53 | 1007.8 |
| 20260508150824 | 58 | 360 | 2.0 | 6.0 | 0.00 | 0.02 | 0.00 | 56 | 1007.8 |
| 20260508150334 | 57 | 360 | 3.0 | 6.0 | 0.00 | 0.02 | 0.00 | 58 | 1007.8 |
| 20260508145824 | 57 | 360 | 3.0 | 7.0 | 0.00 | 0.02 | 0.00 | 58 | 1007.9 |
| 20260508145333 | 56 | 360 | 1.0 | 7.0 | 0.00 | 0.02 | 0.00 | 60 | 1008.0 |
| 20260508144844 | 56 | 360 | 2.0 | 5.0 | 0.00 | 0.02 | 0.00 | 60 | 1008.0 |
| 20260508144335 | 56 | 360 | 3.0 | 7.0 | 0.00 | 0.02 | 0.00 | 59 | 1008.0 |
| 20260508143844 | 56 | 360 | 3.0 | 7.0 | 0.00 | 0.02 | 0.00 | 61 | 1008.0 |
| 20260508143333 | 56 | 360 | 1.0 | 5.0 | 0.00 | 0.02 | 0.00 | 66 | 1007.8 |
| 20260508142845 | 55 | 360 | 3.0 | 5.0 | 0.00 | 0.02 | 0.00 | 65 | 1007.9 |
| 20260508142356 | 55 | 360 | 1.0 | 5.0 | 0.00 | 0.02 | 0.00 | 69 | 1008.0 |
| 20260508141845 | 55 | 360 | 3.0 | 5.0 | 0.00 | 0.02 | 0.00 | 67 | 1008.0 |
| 20260508141403 | 54 | 360 | 2.0 | 4.0 | 0.00 | 0.02 | 0.00 | 70 | 1008.1 |
| 20260508140829 | 54 | 360 | 2.0 | 4.0 | 0.00 | 0.02 | 0.00 | 72 | 1008.1 |
| 20260508140336 | 53 | 360 | 1.0 | 4.0 | 0.00 | 0.02 | 0.00 | 74 | 1008.1 |
| 20260508135825 | 53 | 360 | 2.0 | 4.0 | 0.00 | 0.02 | 0.00 | 74 | 1008.0 |
| 20260508135336 | 53 | 360 | 1.0 | 3.0 | 0.00 | 0.02 | 0.00 | 76 | 1008.1 |
| 20260508134846 | 52 | 360 | 1.0 | 3.0 | 0.00 | 0.02 | 0.00 | 76 | 1008.2 |
| 20260508134358 | 52 | 360 | 1.0 | 3.0 | 0.00 | 0.02 | 0.00 | 77 | 1008.2 |
| 20260508133846 | 51 | 360 | 1.0 | 3.0 | 0.00 | 0.02 | 0.00 | 79 | 1008.2 |
| 20260508133335 | 51 | 360 | 0.0 | 3.0 | 0.00 | 0.02 | 0.00 | 81 | 1008.2 |
| 20260508132826 | 50 | 360 | 2.0 | 3.0 | 0.00 | 0.02 | 0.00 | 82 | 1008.2 |
| 20260508132359 | 50 | 360 | 2.0 | 3.0 | 0.00 | 0.02 | 0.00 | 82 | 1008.2 |
| 20260508131849 | 50 | 360 | 1.0 | 3.0 | 0.00 | 0.02 | 0.00 | 85 | 1008.2 |
| 20260508131339 | 49 | 360 | 0.0 | 4.0 | 0.00 | 0.02 | 0.00 | 87 | 1008.3 |
| 20260508130824 | 49 | 360 | 1.0 | 4.0 | 0.00 | 0.02 | 0.00 | 87 | 1008.2 |
| 20260508130333 | 49 | 360 | 0.0 | 2.0 | 0.00 | 0.02 | 0.00 | 89 | 1008.3 |
| 20260508125848 | 48 | 360 | 0.0 | 3.0 | 0.00 | 0.02 | 0.00 | 91 | 1008.3 |
| 20260508125359 | 47 | 360 | 1.0 | 3.0 | 0.00 | 0.02 | 0.00 | 92 | 1008.3 |
| 20260508124825 | 47 | 360 | 0.0 | 3.0 | 0.00 | 0.02 | 0.00 | 93 | 1008.4 |
| 20260508124337 | 46 | 360 | 0.0 | 0.0 | 0.00 | 0.02 | 0.00 | 94 | 1008.3 |
| 20260508123828 | 46 | 360 | 0.0 | 0.0 | 0.00 | 0.02 | 0.00 | 95 | 1008.4 |
| 20260508123335 | 46 | 360 | 0.0 | 0.0 | 0.00 | 0.02 | 0.00 | 96 | 1008.4 |
| 20260508122821 | 45 | 360 | 0.0 | 0.0 | 0.00 | 0.02 | 0.00 | 96 | 1008.4 |
| 20260508122331 | 45 | 360 | 0.0 | 0.0 | 0.00 | 0.02 | 0.00 | 96 | 1008.4 |
| 20260508121820 | 44 | 360 | 0.0 | 0.0 | 0.00 | 0.02 | 0.00 | 96 | 1008.5 |
| 20260508121328 | 43 | 360 | 0.0 | 0.0 | 0.00 | 0.02 | 0.00 | 97 | 1008.6 |
| 20260508120857 | 43 | 360 | 0.0 | 0.0 | 0.00 | 0.02 | 0.00 | 96 | 1008.5 |
| 20260508120325 | 42 | 360 | 0.0 | 0.0 | 0.00 | 0.02 | 0.00 | 96 | 1008.4 |
| 20260508115835 | 41 | 360 | 0.0 | 0.0 | 0.00 | 0.02 | 0.00 | 96 | 1008.4 |
| 20260508115323 | 41 | 360 | 0.0 | 0.0 | 0.00 | 0.02 | 0.00 | 96 | 1008.3 |
| 20260508114857 | 40 | 360 | 0.0 | 0.0 | 0.00 | 0.02 | 0.00 | 96 | 1008.3 |
| 20260508114326 | 40 | 360 | 0.0 | 0.0 | 0.00 | 0.02 | 0.00 | 96 | 1008.2 |
| 20260508113832 | 39 | 360 | 0.0 | 0.0 | 0.00 | 0.02 | 0.00 | 96 | 1008.2 |
| 20260508113322 | 39 | 360 | 0.0 | 0.0 | 0.00 | 0.02 | 0.00 | 95 | 1008.1 |
| 20260508112831 | 39 | 360 | 0.0 | 0.0 | 0.00 | 0.02 | 0.00 | 96 | 1008.1 |
| 20260508112340 | 38 | 360 | 0.0 | 0.0 | 0.00 | 0.02 | 0.00 | 96 | 1008.2 |
| 20260508111829 | 38 | 360 | 0.0 | 0.0 | 0.00 | 0.02 | 0.00 | 95 | 1008.3 |
| 20260508111338 | 38 | 360 | 0.0 | 0.0 | 0.00 | 0.02 | 0.00 | 95 | 1008.3 |
| 20260508110846 | 38 | 360 | 0.0 | 0.0 | 0.00 | 0.02 | 0.00 | 95 | 1008.2 |
| 20260508110356 | 38 | 360 | 0.0 | 0.0 | 0.00 | 0.02 | 0.00 | 95 | 1008.2 |
| 20260508105845 | 38 | 360 | 0.0 | 0.0 | 0.00 | 0.02 | 0.00 | 95 | 1008.0 |
| 20260508105353 | 38 | 360 | 0.0 | 0.0 | 0.00 | 0.02 | 0.00 | 95 | 1008.1 |
| 20260508104822 | 38 | 360 | 0.0 | 0.0 | 0.00 | 0.02 | 0.00 | 95 | 1008.0 |
| 20260508104328 | 38 | 360 | 0.0 | 0.0 | 0.00 | 0.02 | 0.00 | 95 | 1008.0 |
| 20260508103833 | 38 | 360 | 0.0 | 0.0 | 0.00 | 0.02 | 0.02 | 95 | 1008.0 |
| 20260508103323 | 38 | 360 | 0.0 | 0.0 | 0.00 | 0.02 | 0.02 | 95 | 1008.1 |
| 20260508102832 | 38 | 360 | 0.0 | 0.0 | 0.00 | 0.02 | 0.02 | 94 | 1008.1 |
| 20260508102322 | 38 | 360 | 0.0 | 0.0 | 0.00 | 0.02 | 0.02 | 94 | 1008.1 |
| 20260508101832 | 38 | 360 | 0.0 | 0.0 | 0.00 | 0.02 | 0.02 | 95 | 1008.1 |
| 20260508101323 | 38 | 360 | 0.0 | 0.0 | 0.00 | 0.02 | 0.02 | 95 | 1007.9 |
| 20260508100830 | 38 | 360 | 0.0 | 0.0 | 0.00 | 0.02 | 0.02 | 95 | 1007.8 |
| 20260508100339 | 38 | 360 | 0.0 | 0.0 | 0.00 | 0.02 | 0.02 | 95 | 1007.9 |
| 20260508095829 | 39 | 360 | 0.0 | 0.0 | 0.00 | 0.02 | 0.02 | 95 | 1008.0 |
| 20260508095338 | 39 | 360 | 0.0 | 0.0 | 0.00 | 0.02 | 0.02 | 94 | 1008.1 |
| 20260508094828 | 39 | 360 | 0.0 | 0.0 | 0.00 | 0.02 | 0.02 | 95 | 1007.9 |
| 20260508094337 | 39 | 360 | 0.0 | 0.0 | 0.00 | 0.02 | 0.02 | 95 | 1008.0 |
| 20260508093825 | 39 | 360 | 0.0 | 0.0 | 0.00 | 0.02 | 0.02 | 94 | 1008.0 |
| 20260508093335 | 39 | 360 | 0.0 | 0.0 | 0.00 | 0.02 | 0.02 | 94 | 1008.1 |
| 20260508092844 | 39 | 360 | 0.0 | 0.0 | 0.00 | 0.02 | 0.02 | 94 | 1008.1 |
| 20260508092353 | 39 | 360 | 0.0 | 0.0 | 0.00 | 0.02 | 0.02 | 95 | 1008.1 |
| 20260508091908 | 39 | 360 | 0.0 | 0.0 | 0.00 | 0.02 | 0.02 | 94 | 1008.2 |
| 20260508091356 | 39 | 360 | 0.0 | 0.0 | 0.00 | 0.02 | 0.02 | 95 | 1008.1 |
| 20260508090823 | 39 | 360 | 0.0 | 0.0 | 0.00 | 0.02 | 0.02 | 94 | 1008.1 |
| 20260508090333 | 39 | 360 | 0.0 | 0.0 | 0.00 | 0.02 | 0.02 | 94 | 1008.2 |
| 20260508085821 | 39 | 360 | 0.0 | 0.0 | 0.00 | 0.02 | 0.02 | 94 | 1008.2 |
| 20260508085331 | 39 | 360 | 0.0 | 0.0 | 0.00 | 0.02 | 0.02 | 94 | 1008.2 |